Beaufort, NC

5:46 PM EST on January 21, 2018 (GMT -0500)
Smith

Weather History for KMRH - February, 2012

Change the Weather History Date:

Saturday, February 11, 2012

  Actual Average Record
Temperature  
Mean Temperature 44 °F -  
Max Temperature 53 °F 56 °F 73 °F (1965)
Min Temperature 30 °F 33 °F 14 °F (1968)
Degree Days  
Heating Degree Days 22    
Moisture  
Dew Point 40 °F    
Average Humidity 82    
Maximum Humidity 100    
Minimum Humidity 46    
Precipitation  
Precipitation 0.01 in - - ()
Sea Level Pressure  
Sea Level Pressure 29.74 in    
Wind  
Wind Speed 10 mph (NW)    
Max Wind Speed 29 mph    
Max Gust Speed 40 mph    
Visibility 7 miles    
Events Rain    
Averages and records for this station are not official NWS values.
T = Trace of Precipitation, MM = Missing Value Source: NWS Daily Summary

Daily Weather History Graph

Daily Weather History Graph

Search for Another Location

Airport or City:

Trip Planner

Search our weather history database for the weather conditions in past years. The results will help you decide how hot, cold, wet, or windy it might be!

Date:

Astronomy

Feb. 11, 2012 Rise Set
Actual Time 6:56 AM EST 5:45 PM EST
Civil Twilight 6:30 AM EST 6:11 PM EST
Nautical Twilight 6:01 AM EST 6:41 PM EST
Astronomical Twilight 5:31 AM EST 7:10 PM EST
Moon 10:15 PM EST (2/11) 8:51 AM EST (2/11)
Length of Visible Light 11h 40m
Length of Day
10h 48m
Waning Gibbous, 82% of the Moon is Illuminated
Feb 11
Waning Gibbous
Feb 14
Last Quarter
Feb 21
New
Feb 29
First Quarter
Mar 8
Full

Hourly Weather History & Observations

Time (EST) Temp. Windchill Dew Point Humidity Pressure Visibility Wind Dir Wind Speed Gust Speed Precip Events Conditions
12:56 AM 46.9 °F - 46.0 °F 97% 29.84 in 7.0 mi ENE 6.9 mph - N/A   Overcast
1:56 AM 46.9 °F - 46.0 °F 97% 29.81 in 6.0 mi NE 8.1 mph - N/A   Mostly Cloudy
2:26 AM 46.4 °F 42.4 °F 46.4 °F 100% 29.79 in 6.0 mi NNE 8.1 mph - N/A   Mostly Cloudy
2:36 AM 46.4 °F 42.4 °F 46.4 °F 100% 29.79 in 6.0 mi NNW 8.1 mph - N/A   Overcast
2:56 AM 46.9 °F - 46.9 °F 100% 29.78 in 6.0 mi North 6.9 mph - N/A   Overcast
3:56 AM 48.0 °F - 46.9 °F 96% 29.77 in 7.0 mi NNW 9.2 mph - N/A   Overcast
4:56 AM 48.0 °F - 46.9 °F 96% 29.75 in 7.0 mi NNW 4.6 mph - 0.00 in Rain Light Rain
5:04 AM 48.2 °F - 48.2 °F 100% 29.75 in 7.0 mi NNW 3.5 mph - 0.00 in Rain Light Rain
5:30 AM 48.2 °F - 46.4 °F 93% 29.74 in 6.0 mi NW 6.9 mph - 0.01 in Rain Light Rain
5:56 AM 48.0 °F - 46.9 °F 96% 29.73 in 6.0 mi NNW 5.8 mph - 0.01 in Rain Light Rain
6:27 AM 46.4 °F 42.9 °F 46.4 °F 100% 29.74 in 5.0 mi NW 6.9 mph - 0.00 in   Scattered Clouds
6:43 AM 46.4 °F 42.4 °F 46.4 °F 100% 29.76 in 5.0 mi NW 8.1 mph - 0.00 in   Mostly Cloudy
6:53 AM 46.4 °F 42.4 °F 46.4 °F 100% 29.75 in 5.0 mi NW 8.1 mph - 0.00 in   Mostly Cloudy
6:56 AM 46.9 °F - 46.0 °F 97% 29.75 in 5.0 mi NW 9.2 mph - 0.00 in   Mostly Cloudy
7:02 AM 46.4 °F 42.4 °F 46.4 °F 100% 29.75 in 5.0 mi NW 8.1 mph - N/A   Scattered Clouds
7:56 AM 46.9 °F - 46.0 °F 97% 29.76 in 4.0 mi NW 9.2 mph - N/A   Overcast
8:56 AM 48.0 °F - 46.0 °F 93% 29.75 in 4.0 mi NW 13.8 mph - 0.00 in Rain Light Rain
9:56 AM 48.9 °F - 46.0 °F 90% 29.74 in 5.0 mi NW 11.5 mph - 0.00 in   Overcast
10:56 AM 51.1 °F - 43.0 °F 74% 29.71 in 5.0 mi NNW 11.5 mph - N/A   Haze
11:56 AM 52.0 °F - 43.0 °F 71% 29.69 in 6.0 mi NW 9.2 mph - N/A   Haze
12:27 PM 53.6 °F - 42.8 °F 67% 29.66 in 6.0 mi NW 9.2 mph - N/A   Haze
12:38 PM 53.6 °F - 42.8 °F 67% 29.67 in 6.0 mi NW 10.4 mph - N/A   Haze
12:56 PM 52.0 °F - 42.1 °F 69% 29.66 in 6.0 mi NW 13.8 mph - N/A   Haze
1:49 PM 50.0 °F - 41.0 °F 71% 29.65 in 7.0 mi NNW 17.3 mph - N/A   Overcast
1:56 PM 48.9 °F - 39.9 °F 71% 29.65 in 7.0 mi NW 17.3 mph - N/A   Overcast
2:30 PM 48.2 °F - 37.4 °F 66% 29.66 in 10.0 mi NW 15.0 mph - N/A   Overcast
2:56 PM 48.0 °F - 36.0 °F 63% 29.67 in 10.0 mi NW 17.3 mph - N/A   Overcast
3:56 PM 46.9 °F - 36.0 °F 66% 29.69 in 10.0 mi WNW 11.5 mph - N/A   Overcast
4:56 PM 46.9 °F - 36.0 °F 66% 29.70 in 10.0 mi WNW 10.4 mph - N/A   Mostly Cloudy
5:56 PM 45.0 °F 37.4 °F 36.0 °F 71% 29.72 in 10.0 mi WNW 18.4 mph - 0.00 in   Overcast
6:56 PM 44.1 °F 38.1 °F 34.0 °F 68% 29.73 in 10.0 mi West 11.5 mph - N/A   Overcast
7:56 PM 43.0 °F 33.3 °F 28.0 °F 56% 29.77 in 10.0 mi NW 25.3 mph 32.2 mph N/A   Partly Cloudy
8:56 PM 37.9 °F 25.9 °F 19.0 °F 47% 29.82 in 10.0 mi NW 28.8 mph 36.8 mph N/A   Scattered Clouds
9:56 PM 34.0 °F 20.5 °F 15.1 °F 46% 29.85 in 10.0 mi WNW 28.8 mph 39.1 mph N/A   Clear
10:56 PM 30.9 °F 17.5 °F 14.0 °F 50% 29.88 in 10.0 mi NW 24.2 mph 40.3 mph N/A   Clear
11:56 PM 30.0 °F 15.2 °F 12.0 °F 47% 29.91 in 10.0 mi NW 28.8 mph 41.4 mph N/A   Clear